WGS F1 (USA 195)

Last updated on Fri Nov 07 2025 00:02:48 GMT+0000 (Coordinated Universal Time)

1 32258U 07046A 25310.19003353 -.00000257 00000+0 00000+0 0 9995 2 32258 0.1486 87.0616 0001128 141.8544 202.6608 1.00269753 50099
UTC large
Height (km)
Speed (km/s)
/
Latitude / Longitude
Inclination (degrees)
Orbital Period (minutes)
Azimuth
Elevation
Range (km)
Doppler Factor

Next 0 passes for location: London (51.5072 / 0.1276)

Sorry there are no passes over London.